Danville, VA

4:51 PM EDT on August 18, 2017 (GMT -0400)
Danville Regional

Weather History for KDAN - February, 2012

Change the Weather History Date:

Tuesday, February 14, 2012

  Actual Average Record
Temperature  
Mean Temperature 45 °F 41 °F  
Max Temperature 53 °F 50 °F 78 °F (1949)
Min Temperature 37 °F 32 °F 13 °F (2016)
Degree Days  
Heating Degree Days 20 24  
Month to date heating degree days 350 356  
Since 1 July heating degree days 2446 2684  
Cooling Degree Days 0 0  
Month to date cooling degree days 0 0  
Year to date cooling degree days 0 0  
Moisture  
Dew Point 27 °F    
Average Humidity 54    
Maximum Humidity 73    
Minimum Humidity 34    
Precipitation  
Precipitation 0.00 in 0.11 in 2.98 in (1984)
Month to date precipitation 0.48 1.55  
Year to date precipitation 2.47 4.97  
Snow  
Snow 0.00 in - - ()
Month to date snowfall 0.0  
Since 1 July snowfall 0.0  
Snow Depth 0.00 in    
Sea Level Pressure  
Sea Level Pressure 30.03 in    
Wind  
Wind Speed 7 mph (SW)    
Max Wind Speed 22 mph    
Max Gust Speed 28 mph    
Visibility 10 miles    
Events      
T = Trace of Precipitation, MM = Missing Value Source: NWS Daily Summary

Daily Weather History Graph

Daily Weather History Graph

Search for Another Location

Airport or City:

Trip Planner

Search our weather history database for the weather conditions in past years. The results will help you decide how hot, cold, wet, or windy it might be!

Date:

Astronomy

Feb. 14, 2012 Rise Set
Actual Time 7:07 AM EST 5:56 PM EST
Civil Twilight 6:40 AM EST 6:23 PM EST
Nautical Twilight 6:10 AM EST 6:53 PM EST
Astronomical Twilight 5:40 AM EST 7:23 PM EST
Moon 12:46 AM EST (2/14) 11:04 AM EST (2/14)
Length of Visible Light 11h 42m
Length of Day
10h 49m
Waning Gibbous, 50% of the Moon is Illuminated
Feb 14
Waning Gibbous
Feb 14
Last Quarter
Feb 21
New
Feb 29
First Quarter
Mar 8
Full

Hourly Weather History & Observations

Time (EST) Temp. Windchill Dew Point Humidity Pressure Visibility Wind Dir Wind Speed Gust Speed Precip Events Conditions
12:53 AM 37.9 °F - 18.0 °F 45% 30.09 in 10.0 mi Calm Calm - N/A   Mostly Cloudy
1:53 AM 39.9 °F 37.8 °F 16.0 °F 38% 30.06 in 10.0 mi South 3.5 mph - N/A   Overcast
2:53 AM 39.9 °F 36.7 °F 17.1 °F 40% 30.05 in 10.0 mi South 4.6 mph - N/A   Overcast
3:53 AM 41.0 °F 38.0 °F 15.8 °F 36% 30.06 in 10.0 mi South 4.6 mph - N/A   Overcast
4:53 AM 41.0 °F - 17.1 °F 38% 30.05 in 10.0 mi Calm Calm - N/A   Overcast
5:53 AM 39.9 °F - 18.0 °F 41% 30.05 in 10.0 mi Calm Calm - N/A   Overcast
6:53 AM 39.9 °F - 19.9 °F 45% 30.06 in 10.0 mi Calm Calm - N/A   Overcast
7:53 AM 37.9 °F 35.5 °F 23.0 °F 55% 30.07 in 10.0 mi SSE 3.5 mph - N/A   Overcast
8:53 AM 41.0 °F 37.1 °F 21.2 °F 45% 30.09 in 10.0 mi SSW 5.8 mph - N/A   Overcast
9:53 AM 44.1 °F 39.5 °F 21.9 °F 42% 30.08 in 10.0 mi SSW 8.1 mph - N/A   Overcast
10:53 AM 46.9 °F - 24.1 °F 41% 30.07 in 10.0 mi SW 9.2 mph - N/A   Overcast
11:53 AM 48.0 °F - 28.0 °F 46% 30.04 in 10.0 mi SW 15.0 mph 27.6 mph N/A   Mostly Cloudy
12:53 PM 50.0 °F - 30.9 °F 48% 30.00 in 10.0 mi SW 16.1 mph 21.9 mph N/A   Clear
1:53 PM 51.1 °F - 32.0 °F 48% 29.97 in 10.0 mi SW 13.8 mph 19.6 mph N/A   Mostly Cloudy
2:53 PM 51.1 °F - 35.1 °F 54% 29.96 in 10.0 mi SW 17.3 mph 24.2 mph N/A   Overcast
3:53 PM 51.1 °F - 35.1 °F 54% 29.97 in 10.0 mi SW 17.3 mph 23.0 mph N/A   Overcast
4:53 PM 51.1 °F - 35.1 °F 54% 29.98 in 10.0 mi WSW 9.2 mph - N/A   Overcast
5:53 PM 50.0 °F - 35.1 °F 57% 29.98 in 10.0 mi SW 6.9 mph - N/A   Overcast
6:53 PM 48.2 °F - 33.8 °F 58% 30.01 in 10.0 mi SW 4.6 mph - N/A   Overcast
7:53 PM 48.2 °F - 35.6 °F 62% 30.02 in 10.0 mi SW 6.9 mph - N/A   Overcast
8:53 PM 46.9 °F - 35.1 °F 63% 30.02 in 10.0 mi SSW 3.5 mph - N/A   Overcast
9:53 PM 42.1 °F 39.2 °F 34.0 °F 73% 30.04 in 10.0 mi SW 4.6 mph - N/A   Mostly Cloudy
10:53 PM 41.0 °F 38.0 °F 34.0 °F 76% 30.04 in 10.0 mi SW 4.6 mph - N/A   Clear
11:53 PM 39.0 °F 35.7 °F 34.0 °F 82% 30.06 in 10.0 mi West 4.6 mph - N/A   Clear